• MPC Preparation (Info)

  • MPEC 2014-D25 : 2014 DG6

    The following Minor Planet Electronic Circular may be linked-to from your own Web pages, but must not otherwise be redistributed electronically.

    A form allowing access to any MPEC is at the bottom of this page.


    Read MPEC 2014-D24 Read MPEC 2014-D26


    M.P.E.C. 2014-D25                                Issued 2014 Feb. 22, 21:54 UT
    
         The Minor Planet Electronic Circulars contain information on unusual
             minor planets and routine data on comets.  They are published
       on behalf of Commission 20 of the International Astronomical Union by the
              Minor Planet Center, Smithsonian Astrophysical Observatory,
                              Cambridge, MA 02138, U.S.A.
    
                 Prepared using the Tamkin Foundation Computer Network
    
                                  MPC@CFA.HARVARD.EDU
                URL https://www.minorplanetcenter.net/    ISSN 1523-6714
    
                                       2014 DG6
    
    Observations:
         K14D06G* C2014 02 21.35438 10 38 10.38 +38 47 44.0          20.6 VqED025G96
         K14D06G  C2014 02 21.35893 10 38 09.96 +38 47 28.0          20.8 VqED025G96
         K14D06G  C2014 02 21.36349 10 38 09.56 +38 47 13.6          21.7 VqED025G96
         K14D06G  C2014 02 21.36804 10 38 09.15 +38 46 57.4          21.5 VqED025G96
         K14D06G  C2014 02 21.40323 10 38 06.20 +38 45 00.4          21.6 VqED025G96
         K14D06G  C2014 02 21.40407 10 38 06.10 +38 44 58.1          21.5 VqED025G96
         K14D06G  C2014 02 21.40491 10 38 06.06 +38 44 54.6          20.9 VqED025G96
         K14D06G  C2014 02 21.40575 10 38 06.03 +38 44 52.5          20.9 VqED025G96
         K14D06G KC2014 02 21.54216 10 37 55.78 +38 37 09.1          20.1 RoED025291
         K14D06G KC2014 02 21.54407 10 37 55.66 +38 37 02.5          20.2 RoED025291
         K14D06G KC2014 02 21.54598 10 37 55.49 +38 36 56.2          20.4 RoED025291
         K14D06G  C2014 02 22.13194010 37 27.39 +38 04 53.4          20.7 RtED025H01
         K14D06G  C2014 02 22.13520310 37 27.17 +38 04 43.2          20.3 RtED025H01
         K14D06G  C2014 02 22.14456410 37 26.51 +38 04 13.8          20.9 RtED025H01
         K14D06G  C2014 02 22.15219010 37 25.97 +38 03 49.9          20.8 RtED025H01
         K14D06G KC2014 02 22.20873 10 37 20.96 +38 00 49.3          20.7 RqED025H36
         K14D06G KC2014 02 22.22428 10 37 19.73 +37 59 59.5          20.3 RqED025H36
         K14D06G KC2014 02 22.25457 10 37 17.30 +37 58 20.5          20.8 RqED025H36
         K14D06G KC2014 02 22.45613910 37 01.45 +37 47 10.4          21.0 VqED025V37
         K14D06G KC2014 02 22.46130810 37 01.06 +37 46 52.6          21.2 VqED025V37
         K14D06G  C2014 02 22.46299 10 37 01.25 +37 46 47.6          20.2 VqED025G96
         K14D06G  C2014 02 22.46348 10 37 01.25 +37 46 46.2          20.1 VqED025G96
         K14D06G  C2014 02 22.46398 10 37 01.22 +37 46 44.8          20.3 VqED025G96
         K14D06G  C2014 02 22.46447 10 37 01.21 +37 46 42.7          20.4 VqED025G96
         K14D06G KC2014 02 22.46648510 37 00.71 +37 46 34.8          21.0 VqED025V37
    
    Observer details:
    291 LPL/Spacewatch II.  Observer T. H. Bressi.  1.8-m f/2.7 reflector + CCD.
    G96 Mt. Lemmon Survey.  Observer E. J. Christensen.  Measurers
        E. J. Christensen, A. R. Gibbs, A. D. Grauer, R. E. Hill, J. A. Johnson,
        R. A. Kowalski, S. M. Larson, F. C. Shelly.  1.5-m reflector + CCD.
    H01 Magdalena Ridge Observatory, Socorro.  Observer W. H. Ryan.  2.4-m f/8.9
        reflector + CCD.
    H36 Sandlot Observatory, Scranton.  Observer G. Hug.  0.56-m reflector + CCD.
    V37 McDonald Observatory-LCOGT ELP.  Observers E. J. Christensen, S. M. Larson,
        T. Lister.  Measurer T. Lister.  1.0-m f/8 Ritchey-Chretien + CCD.
    
    Orbital elements:
    2014 DG6                                                 Earth MOID = 0.1636 AU
    Epoch 2013 Nov. 4.0 TT = JDT 2456600.5                  MPC
    M 314.67077              (2000.0)            P               Q
    n   0.53178877     Peri.  129.07561     -0.62993221     -0.77665012
    a   1.5088403      Node   359.96920     +0.66167787     -0.53662819
    e   0.2579214      Incl.    8.13833     +0.40665442     -0.32991632
    P   1.85           H   23.4           G   0.15           U   7
    Residuals in seconds of arc
    140221 G96  0.7+  1.0+    140221 291  0.2+  0.0     140222 V37  0.1-  0.0
    140221 G96  0.3+  0.1-    140221 291  0.3-  0.3+    140222 V37  0.2-  0.0
    140221 G96  0.2+  0.6+    140222 H01  0.0   0.2-    140222 G96  0.4-  0.3-
    140221 G96  0.1-  0.6-    140222 H01  0.1+  0.2-    140222 G96  0.0   0.0
    140221 G96  0.3-  0.6-    140222 H01  0.1+  0.1-    140222 G96  0.1+  0.3+
    140221 G96  0.7-  0.1-    140222 H01  0.1+  0.0     140222 G96  0.4+  0.1-
    140221 G96  0.4-  0.8-    140222 H36  0.3-  0.1-    140222 V37  0.2+  0.1+
    140221 G96  0.1+  0.1-    140222 H36  0.2-  0.4+
    140221 291  0.1+  0.1+    140222 H36  0.1+  0.1+
    
    Ephemeris:
    2014 DG6                 a,e,i = 1.51, 0.26, 8                   q = 1.1197
    Date    TT    R. A. (2000) Decl.     Delta      r     Elong.  Phase     V
    2014 01 23    10 51 39.4 +56 49 26   0.1864  1.1205   133.4    39.7    21.6
    ...
    2014 02 07    10 51 37.5 +49 57 30   0.1690  1.1225   141.0    33.6    21.2
    ...
    2014 02 15    10 44 39.2 +44 14 26   0.1649  1.1291   146.7    28.7    21.0
    ...
    2014 02 21    10 38 32.4 +39 06 53   0.1653  1.1365   151.2    24.8    20.9
    2014 02 22    10 37 31.9 +38 12 24   0.1657  1.1379   151.9    24.2    20.9
    2014 02 23    10 36 32.2 +37 17 10   0.1662  1.1394   152.6    23.6    20.9
    ...
    2014 03 01    10 31 04.8 +31 35 28   0.1714  1.1494   155.9    20.6    20.9
    ...
    2014 03 09    10 26 03.1 +23 58 17   0.1850  1.1655   157.2    19.3    21.0
    ...
    2014 03 24    10 25 17.8 +11 40 35   0.2306  1.2032   150.7    23.9    21.7
    
    A. U. Tomatic                (C) Copyright 2014 MPC           M.P.E.C. 2014-D25
    

    Read MPEC 2014-D24 Read MPEC 2014-D26


    MPEC number:

    Enter an MPEC number in one of the following forms:

    • 1997-B01 (the full form)
    • J97B01 (the packed version of the full form)
    • B01 (the abbreviated form)